Time,TemperatureF,DewpointF,PressureIn,WindDirection,WindDirectionDegrees,WindSpeedMPH,WindSpeedGustMPH,Humidity,HourlyPrecipIn,Conditions,Clouds,dailyrainin,SoftwareType,DateUTC
2013-08-12 00:04:00,72.3,68.2,30.13,NW,323,0.0,0.0,87,0.00,RA,,0.00,WeatherDisplay:10.37,2013-08-12 04:04:00,
2013-08-12 00:09:00,72.1,68.1,30.13,NW,315,0.0,0.0,87,0.00,CLR,,0.00,WeatherDisplay:10.37,2013-08-12 04:09:00,
2013-08-12 00:19:00,72.1,68.4,30.13,West,261,0.0,0.0,88,0.00,CLR,,0.00,WeatherDisplay:10.37,2013-08-12 04:19:00,
2013-08-12 00:34:00,72.0,68.2,30.12,WNW,287,0.0,0.0,88,0.00,CLR,,0.00,WeatherDisplay:10.37,2013-08-12 04:34:00,
2013-08-12 00:39:00,72.0,68.5,30.12,North,349,0.0,0.0,89,0.00,CLR,,0.00,WeatherDisplay:10.37,2013-08-12 04:39:00,
2013-08-12 00:49:00,71.8,68.4,30.12,NW,315,0.0,0.0,89,0.00,CLR,,0.00,WeatherDisplay:10.37,2013-08-12 04:49:00,
2013-08-12 00:54:00,71.7,68.3,30.12,NNW,332,0.0,0.0,89,0.00,CLR,,0.00,WeatherDisplay:10.37,2013-08-12 04:54:00,
2013-08-12 00:59:00,71.6,68.5,30.12,NNW,344,0.0,0.0,90,0.00,CLR,,0.00,WeatherDisplay:10.37,2013-08-12 04:59:00,
2013-08-12 01:04:00,71.6,68.5,30.12,North,356,0.0,0.0,90,0.00,CLR,,0.00,WeatherDisplay:10.37,2013-08-12 05:04:00,
2013-08-12 01:09:00,71.6,68.5,30.12,WNW,282,0.0,0.0,90,0.00,CLR,,0.00,WeatherDisplay:10.37,2013-08-12 05:09:00,
2013-08-12 01:19:00,71.4,68.7,30.12,NW,315,0.0,0.0,91,0.00,CLR,,0.00,WeatherDisplay:10.37,2013-08-12 05:19:00,
2013-08-12 01:29:00,71.2,68.5,30.12,West,270,0.0,0.0,91,0.00,CLR,,0.00,WeatherDisplay:10.37,2013-08-12 05:29:00,
2013-08-12 01:34:00,71.2,68.8,30.11,WNW,303,0.0,0.0,92,0.00,CLR,,0.00,WeatherDisplay:10.37,2013-08-12 05:34:00,
2013-08-12 01:39:00,71.2,68.8,30.12,WNW,291,0.0,0.0,92,0.00,CLR,,0.00,WeatherDisplay:10.37,2013-08-12 05:39:00,
2013-08-12 01:49:00,71.1,68.6,30.11,WNW,285,0.0,0.0,92,0.00,CLR,,0.00,WeatherDisplay:10.37,2013-08-12 05:49:00,
2013-08-12 01:54:00,71.1,68.6,30.11,WNW,301,0.0,0.0,92,0.00,CLR,,0.00,WeatherDisplay:10.37,2013-08-12 05:54:00,
2013-08-12 01:59:00,71.1,68.6,30.12,NW,315,0.0,0.0,92,0.00,CLR,,0.00,WeatherDisplay:10.37,2013-08-12 05:59:00,
2013-08-12 02:04:00,71.1,68.6,30.11,NW,315,0.0,0.0,92,0.00,CLR,,0.00,WeatherDisplay:10.37,2013-08-12 06:04:00,
2013-08-12 02:09:00,70.9,68.4,30.11,WNW,301,0.0,0.0,92,0.00,CLR,,0.00,WeatherDisplay:10.37,2013-08-12 06:09:00,
2013-08-12 02:19:00,70.9,68.4,30.11,WSW,255,0.0,0.0,92,0.00,CLR,,0.00,WeatherDisplay:10.37,2013-08-12 06:19:00,
2013-08-12 02:29:00,70.7,68.3,30.11,NW,315,0.0,0.0,92,0.00,CLR,,0.00,WeatherDisplay:10.37,2013-08-12 06:29:00,
2013-08-12 02:39:00,70.7,68.6,30.11,NNW,343,0.0,0.0,93,0.00,CLR,,0.00,WeatherDisplay:10.37,2013-08-12 06:39:00,
2013-08-12 02:49:00,70.7,68.6,30.11,NW,315,0.0,0.0,93,0.00,CLR,,0.00,WeatherDisplay:10.37,2013-08-12 06:49:00,
2013-08-12 02:59:00,70.7,68.6,30.11,NW,315,0.0,0.0,93,0.00,CLR,,0.00,WeatherDisplay:10.37,2013-08-12 06:59:00,
2013-08-12 03:04:00,70.7,68.6,30.11,NW,315,0.0,0.0,93,0.00,CLR,,0.00,WeatherDisplay:10.37,2013-08-12 07:04:00,
2013-08-12 03:09:00,70.5,68.4,30.10,NW,315,0.0,0.0,93,0.00,CLR,,0.00,WeatherDisplay:10.37,2013-08-12 07:09:00,
2013-08-12 03:19:00,70.5,68.4,30.10,NW,315,0.0,0.0,93,0.00,CLR,,0.00,WeatherDisplay:10.37,2013-08-12 07:19:00,
2013-08-12 03:24:00,70.5,68.4,30.10,WNW,297,0.0,0.0,93,0.00,CLR,,0.00,WeatherDisplay:10.37,2013-08-12 07:24:00,
2013-08-12 03:29:00,70.5,68.4,30.10,West,274,0.0,0.0,93,0.00,CLR,,0.00,WeatherDisplay:10.37,2013-08-12 07:29:00,
2013-08-12 03:39:00,70.7,68.6,30.10,SW,215,0.0,0.0,93,0.00,CLR,,0.00,WeatherDisplay:10.37,2013-08-12 07:39:00,
2013-08-12 03:44:00,70.7,68.6,30.10,SW,225,0.0,0.0,93,0.00,CLR,,0.00,WeatherDisplay:10.37,2013-08-12 07:44:00,
2013-08-12 03:49:00,70.8,68.7,30.10,SW,225,0.0,0.0,93,0.00,CLR,,0.00,WeatherDisplay:10.37,2013-08-12 07:49:00,
2013-08-12 03:54:00,70.9,68.8,30.10,SW,225,0.0,0.0,93,0.00,CLR,,0.00,WeatherDisplay:10.37,2013-08-12 07:54:00,
2013-08-12 03:59:00,70.9,68.8,30.10,SW,225,0.0,0.0,93,0.00,CLR,,0.00,WeatherDisplay:10.37,2013-08-12 07:59:00,
2013-08-12 04:04:00,70.9,68.8,30.10,SW,225,0.0,0.0,93,0.00,CLR,,0.00,WeatherDisplay:10.37,2013-08-12 08:04:00,
2013-08-12 04:09:00,70.9,69.1,30.10,SW,225,0.0,0.0,94,0.00,CLR,,0.00,WeatherDisplay:10.37,2013-08-12 08:09:00,
2013-08-12 04:14:00,70.9,69.1,30.10,SW,225,0.0,0.0,94,0.00,CLR,,0.00,WeatherDisplay:10.37,2013-08-12 08:14:00,
2013-08-12 04:19:00,70.9,69.1,30.11,SW,225,0.0,0.0,94,0.00,CLR,,0.00,WeatherDisplay:10.37,2013-08-12 08:19:00,
2013-08-12 04:24:00,70.9,69.1,30.10,SW,225,0.0,0.0,94,0.00,CLR,,0.00,WeatherDisplay:10.37,2013-08-12 08:24:00,
2013-08-12 04:29:00,70.7,68.9,30.11,SW,225,0.0,0.0,94,0.00,CLR,,0.00,WeatherDisplay:10.37,2013-08-12 08:29:00,
2013-08-12 04:34:00,70.7,68.9,30.10,SW,225,0.0,0.0,94,0.00,CLR,,0.00,WeatherDisplay:10.37,2013-08-12 08:34:00,
2013-08-12 04:39:00,70.7,68.9,30.10,NNW,333,0.0,0.0,94,0.00,CLR,,0.00,WeatherDisplay:10.37,2013-08-12 08:39:00,
2013-08-12 04:44:00,70.5,68.7,30.10,NE,47,0.0,0.0,94,0.00,CLR,,0.00,WeatherDisplay:10.37,2013-08-12 08:44:00,
2013-08-12 04:49:00,70.5,68.7,30.10,NNE,24,0.0,0.0,94,0.00,CLR,,0.00,WeatherDisplay:10.37,2013-08-12 08:49:00,
2013-08-12 04:54:00,70.5,68.7,30.10,North,354,0.0,0.0,94,0.00,CLR,,0.00,WeatherDisplay:10.37,2013-08-12 08:54:00,
2013-08-12 04:59:00,70.5,68.7,30.10,West,261,0.0,1.0,94,0.00,CLR,,0.00,WeatherDisplay:10.37,2013-08-12 08:59:00,
2013-08-12 05:04:00,70.5,68.7,30.10,SW,222,0.0,0.0,94,0.00,CLR,,0.00,WeatherDisplay:10.37,2013-08-12 09:04:00,
2013-08-12 05:09:00,70.5,68.7,30.10,SW,225,0.0,0.0,94,0.00,CLR,,0.00,WeatherDisplay:10.37,2013-08-12 09:09:00,
2013-08-12 05:14:00,70.5,68.7,30.11,WSW,249,0.0,0.0,94,0.00,CLR,,0.00,WeatherDisplay:10.37,2013-08-12 09:14:00,
2013-08-12 05:19:00,70.5,68.7,30.10,NW,304,0.0,0.0,94,0.00,CLR,,0.00,WeatherDisplay:10.37,2013-08-12 09:19:00,
2013-08-12 05:24:00,70.5,68.7,30.10,NW,315,0.0,0.0,94,0.00,CLR,,0.00,WeatherDisplay:10.37,2013-08-12 09:24:00,
2013-08-12 05:29:00,70.6,68.8,30.10,NW,315,0.0,0.0,94,0.00,CLR,,0.00,WeatherDisplay:10.37,2013-08-12 09:29:00,
2013-08-12 05:39:00,70.7,68.9,30.10,NW,315,0.0,0.0,94,0.00,CLR,,0.00,WeatherDisplay:10.37,2013-08-12 09:39:00,
2013-08-12 05:44:00,70.7,68.9,30.10,NW,315,0.0,0.0,94,0.00,CLR,,0.00,WeatherDisplay:10.37,2013-08-12 09:44:00,
2013-08-12 05:49:00,70.7,68.9,30.10,NW,315,0.0,0.0,94,0.00,CLR,,0.00,WeatherDisplay:10.37,2013-08-12 09:49:00,
2013-08-12 05:59:00,70.7,68.9,30.10,SW,223,0.0,0.0,94,0.00,CLR,,0.00,WeatherDisplay:10.37,2013-08-12 09:59:00,
2013-08-12 06:04:00,70.7,68.9,30.10,WNW,299,0.0,0.0,94,0.00,CLR,,0.00,WeatherDisplay:10.37,2013-08-12 10:04:00,
2013-08-12 06:09:00,70.7,68.9,30.10,NW,315,0.0,0.0,94,0.00,CLR,,0.00,WeatherDisplay:10.37,2013-08-12 10:09:00,
2013-08-12 06:15:00,70.7,68.9,30.10,NW,315,0.0,0.0,94,0.00,CLR,,0.00,WeatherDisplay:10.37,2013-08-12 10:15:00,
2013-08-12 06:24:00,70.9,69.1,30.11,NNE,12,0.0,0.0,94,0.00,CLR,,0.00,WeatherDisplay:10.37,2013-08-12 10:24:00,
2013-08-12 06:29:00,70.9,69.4,30.11,North,0,0.0,0.0,95,0.00,CLR,,0.00,WeatherDisplay:10.37,2013-08-12 10:29:00,
2013-08-12 06:39:00,70.9,69.4,30.11,North,0,0.0,0.0,95,0.00,CLR,,0.00,WeatherDisplay:10.37,2013-08-12 10:39:00,
2013-08-12 06:44:00,70.9,69.4,30.11,North,0,0.0,0.0,95,0.00,CLR,,0.00,WeatherDisplay:10.37,2013-08-12 10:44:00,
2013-08-12 06:49:00,70.9,69.4,30.11,North,0,0.0,0.0,95,0.00,CLR,,0.00,WeatherDisplay:10.37,2013-08-12 10:49:00,
2013-08-12 06:54:00,70.9,69.4,30.12,WSW,254,0.0,0.0,95,0.00,CLR,,0.00,WeatherDisplay:10.37,2013-08-12 10:54:00,
2013-08-12 06:59:00,71.1,69.6,30.11,WSW,242,0.0,0.0,95,0.00,CLR,,0.00,WeatherDisplay:10.37,2013-08-12 10:59:00,
2013-08-12 07:04:00,71.1,69.6,30.11,West,259,0.0,0.0,95,0.00,CLR,,0.00,WeatherDisplay:10.37,2013-08-12 11:04:00,
2013-08-12 07:09:00,71.1,69.6,30.11,WSW,256,0.0,0.0,95,0.00,CLR,,0.00,WeatherDisplay:10.37,2013-08-12 11:09:00,
2013-08-12 07:14:00,71.2,69.7,30.11,SW,232,0.0,0.0,95,0.00,CLR,,0.00,WeatherDisplay:10.37,2013-08-12 11:14:00,
2013-08-12 07:19:00,71.2,69.7,30.11,SW,225,0.0,0.0,95,0.00,CLR,,0.00,WeatherDisplay:10.37,2013-08-12 11:19:00,
2013-08-12 07:24:00,71.2,69.7,30.12,SW,225,0.0,3.0,95,0.00,CLR,,0.00,WeatherDisplay:10.37,2013-08-12 11:24:00,
2013-08-12 07:29:00,71.4,69.9,30.11,WSW,251,0.0,0.0,95,0.00,CLR,,0.00,WeatherDisplay:10.37,2013-08-12 11:29:00,
2013-08-12 07:34:00,71.4,69.9,30.11,WSW,238,0.0,0.0,95,0.00,CLR,,0.00,WeatherDisplay:10.37,2013-08-12 11:34:00,
2013-08-12 07:39:00,71.6,69.8,30.12,SW,220,0.0,1.0,94,0.00,CLR,,0.00,WeatherDisplay:10.37,2013-08-12 11:39:00,
2013-08-12 07:49:00,71.8,70.0,30.12,WSW,237,0.0,0.0,94,0.00,CLR,,0.00,WeatherDisplay:10.37,2013-08-12 11:49:00,
2013-08-12 07:59:00,72.0,70.1,30.12,WSW,257,0.0,0.0,94,0.00,CLR,,0.00,WeatherDisplay:10.37,2013-08-12 11:59:00,
2013-08-12 08:04:00,72.1,70.2,30.12,West,270,0.0,0.0,94,0.00,CLR,,0.00,WeatherDisplay:10.37,2013-08-12 12:04:00,
2013-08-12 08:14:00,72.6,70.7,30.12,SSW,206,3.0,6.0,94,0.00,CLR,,0.00,WeatherDisplay:10.37,2013-08-12 12:14:00,
2013-08-12 08:19:00,72.7,70.9,30.12,SW,232,0.0,3.0,94,0.00,CLR,,0.00,WeatherDisplay:10.37,2013-08-12 12:19:00,
2013-08-12 08:29:00,73.0,71.2,30.12,WSW,242,0.0,1.0,94,0.00,CLR,,0.00,WeatherDisplay:10.37,2013-08-12 12:29:00,
2013-08-12 08:39:00,73.0,71.2,30.12,SSW,209,2.0,5.0,94,0.00,CLR,,0.00,WeatherDisplay:10.37,2013-08-12 12:39:00,
2013-08-12 08:49:00,73.2,71.4,30.12,WSW,238,0.0,3.0,94,0.00,CLR,,0.00,WeatherDisplay:10.37,2013-08-12 12:49:00,
2013-08-12 08:59:00,73.6,72.4,30.12,WSW,237,0.0,3.0,96,0.00,CLR,,0.00,WeatherDisplay:10.37,2013-08-12 12:59:00,
2013-08-12 09:04:00,73.8,72.6,30.12,SW,226,2.0,7.0,96,0.00,CLR,,0.00,WeatherDisplay:10.37,2013-08-12 13:04:00,
2013-08-12 09:09:00,73.9,72.7,30.12,South,191,2.0,7.0,96,0.00,CLR,,0.00,WeatherDisplay:10.37,2013-08-12 13:09:00,
2013-08-12 09:19:00,74.3,73.1,30.12,South,189,6.0,10.0,96,0.00,CLR,,0.00,WeatherDisplay:10.37,2013-08-12 13:19:00,
2013-08-12 09:29:00,74.8,73.6,30.11,SSW,197,1.0,6.0,96,0.00,CLR,,0.00,WeatherDisplay:10.37,2013-08-12 13:29:00,
2013-08-12 09:39:00,75.2,73.7,30.11,SSE,161,1.0,13.0,95,0.00,CLR,,0.00,WeatherDisplay:10.37,2013-08-12 13:39:00,
2013-08-12 09:49:00,75.9,74.1,30.12,South,183,6.0,10.0,94,0.00,CLR,,0.00,WeatherDisplay:10.37,2013-08-12 13:49:00,
2013-08-12 09:54:00,76.4,74.6,30.11,SSE,166,5.0,10.0,94,0.00,CLR,,0.00,WeatherDisplay:10.37,2013-08-12 13:54:00,
2013-08-12 09:59:00,76.8,74.6,30.12,SSW,195,0.0,6.0,93,0.00,CLR,,0.00,WeatherDisplay:10.37,2013-08-12 13:59:00,
2013-08-12 10:04:00,77.3,74.2,30.11,South,186,1.0,13.0,90,0.00,CLR,,0.00,WeatherDisplay:10.37,2013-08-12 14:04:00,
2013-08-12 10:09:00,77.7,73.9,30.11,South,187,2.0,8.0,88,0.00,CLR,,0.00,WeatherDisplay:10.37,2013-08-12 14:09:00,
2013-08-12 10:19:00,78.4,73.6,30.11,SSW,201,6.0,8.0,85,0.00,CLR,,0.00,WeatherDisplay:10.37,2013-08-12 14:19:00,
2013-08-12 10:29:00,79.3,73.0,30.11,SSW,206,1.0,8.0,81,0.00,CLR,,0.00,WeatherDisplay:10.37,2013-08-12 14:29:00,
2013-08-12 10:39:00,80.1,72.2,30.12,SSW,194,2.0,12.0,77,0.00,CLR,,0.00,WeatherDisplay:10.37,2013-08-12 14:39:00,
2013-08-12 10:49:00,80.6,71.5,30.11,SW,222,3.0,7.0,74,0.00,CLR,,0.00,WeatherDisplay:10.37,2013-08-12 14:49:00,
2013-08-12 10:59:00,81.0,71.5,30.11,South,178,2.0,8.0,73,0.00,CLR,,0.00,WeatherDisplay:10.37,2013-08-12 14:59:00,
2013-08-12 11:04:00,81.3,72.2,30.11,SSE,159,2.0,7.0,74,0.00,CLR,,0.00,WeatherDisplay:10.37,2013-08-12 15:04:00,
2013-08-12 11:09:00,81.5,72.0,30.11,SSW,210,3.0,10.0,73,0.00,CLR,,0.00,WeatherDisplay:10.37,2013-08-12 15:09:00,
2013-08-12 11:14:00,81.9,72.4,30.11,SW,228,5.0,7.0,73,0.00,CLR,,0.00,WeatherDisplay:10.37,2013-08-12 15:14:00,
2013-08-12 11:19:00,82.2,72.3,30.12,SW,217,1.0,7.0,72,0.00,CLR,,0.00,WeatherDisplay:10.37,2013-08-12 15:19:00,
2013-08-12 11:29:00,83.3,72.5,30.11,South,173,5.0,12.0,70,0.00,CLR,,0.00,WeatherDisplay:10.37,2013-08-12 15:29:00,
2013-08-12 11:34:00,83.5,73.1,30.11,SSE,157,2.0,10.0,71,0.00,CLR,,0.00,WeatherDisplay:10.37,2013-08-12 15:34:00,
2013-08-12 11:39:00,83.7,72.4,30.11,South,189,6.0,10.0,69,0.00,CLR,,0.00,WeatherDisplay:10.37,2013-08-12 15:39:00,
2013-08-12 11:49:00,84.6,72.4,30.11,SSE,163,2.0,13.0,67,0.00,CLR,,0.00,WeatherDisplay:10.37,2013-08-12 15:49:00,
2013-08-12 11:54:00,85.4,73.6,30.11,SSW,198,5.0,8.0,68,0.00,CLR,,0.00,WeatherDisplay:10.37,2013-08-12 15:54:00,
2013-08-12 11:59:00,85.9,73.6,30.11,SSW,210,8.0,12.0,67,0.00,CLR,,0.00,WeatherDisplay:10.37,2013-08-12 15:59:00,
2013-08-12 12:04:00,86.0,73.3,30.11,South,187,3.0,10.0,66,0.00,CLR,,0.00,WeatherDisplay:10.37,2013-08-12 16:04:00,
2013-08-12 12:09:00,86.7,73.5,30.11,SSW,199,6.0,13.0,65,0.00,CLR,,0.00,WeatherDisplay:10.37,2013-08-12 16:09:00,
2013-08-12 12:14:00,86.2,72.6,30.10,SSW,198,2.0,13.0,64,0.00,CLR,,0.00,WeatherDisplay:10.37,2013-08-12 16:14:00,
2013-08-12 12:19:00,86.0,72.9,30.10,SW,223,3.0,8.0,65,0.00,CLR,,0.00,WeatherDisplay:10.37,2013-08-12 16:19:00,
2013-08-12 12:24:00,85.7,73.0,30.10,SW,235,6.0,8.0,66,0.00,CLR,,0.00,WeatherDisplay:10.37,2013-08-12 16:24:00,
2013-08-12 12:29:00,85.0,72.8,30.10,WSW,247,0.0,7.0,67,0.01,RA,,0.01,WeatherDisplay:10.37,2013-08-12 16:29:00,
2013-08-12 12:34:00,84.3,72.6,30.09,West,280,2.0,7.0,68,0.00,RA,,0.01,WeatherDisplay:10.37,2013-08-12 16:34:00,
2013-08-12 12:39:00,83.0,72.2,30.09,West,276,0.0,6.0,70,0.00,RA,,0.02,WeatherDisplay:10.37,2013-08-12 16:39:00,
2013-08-12 12:44:00,82.0,72.1,30.09,West,268,1.0,5.0,72,0.00,RA,,0.04,WeatherDisplay:10.37,2013-08-12 16:44:00,
2013-08-12 12:49:00,81.0,71.5,30.09,WSW,239,1.0,5.0,73,0.01,RA,,0.06,WeatherDisplay:10.37,2013-08-12 16:49:00,
2013-08-12 12:54:00,79.8,71.6,30.10,NNE,33,0.0,3.0,76,0.00,RA,,0.06,WeatherDisplay:10.37,2013-08-12 16:54:00,
2013-08-12 12:59:00,79.4,71.9,30.10,NNE,14,0.0,3.0,78,0.00,,,0.06,WeatherDisplay:10.37,2013-08-12 16:59:00,
2013-08-12 13:04:00,79.7,73.3,30.10,North,0,0.0,0.0,81,0.00,CLR,,0.06,WeatherDisplay:10.37,2013-08-12 17:04:00,
2013-08-12 13:09:00,80.2,74.2,30.09,North,0,0.0,3.0,82,0.00,CLR,,0.06,WeatherDisplay:10.37,2013-08-12 17:09:00,
2013-08-12 13:19:00,80.4,74.8,30.09,WNW,293,0.0,5.0,83,0.00,CLR,,0.06,WeatherDisplay:10.37,2013-08-12 17:19:00,
2013-08-12 13:24:00,80.1,74.1,30.10,NW,316,0.0,10.0,82,0.00,CLR,,0.06,WeatherDisplay:10.37,2013-08-12 17:24:00,
2013-08-12 13:29:00,79.4,73.5,30.11,NW,315,1.0,7.0,82,0.00,CLR,,0.06,WeatherDisplay:10.37,2013-08-12 17:29:00,
2013-08-12 13:34:00,78.3,71.2,30.11,NE,56,5.0,6.0,79,0.00,RA,,0.07,WeatherDisplay:10.37,2013-08-12 17:34:00,
2013-08-12 13:39:00,77.4,70.8,30.12,NE,51,6.0,8.0,80,0.02,RA,,0.13,WeatherDisplay:10.37,2013-08-12 17:39:00,
2013-08-12 13:49:00,74.5,67.9,30.10,SE,141,6.0,23.0,80,0.00,RA,,0.57,WeatherDisplay:10.37,2013-08-12 17:49:00,
2013-08-12 13:54:00,73.7,68.2,30.10,North,359,0.0,10.0,83,0.00,RA,,0.57,WeatherDisplay:10.37,2013-08-12 17:54:00,
2013-08-12 13:59:00,73.4,68.6,30.09,NNW,344,0.0,1.0,85,0.00,,,0.57,WeatherDisplay:10.37,2013-08-12 17:59:00,
2013-08-12 14:04:00,73.7,69.2,30.08,North,352,0.0,0.0,86,0.00,CLR,,0.57,WeatherDisplay:10.37,2013-08-12 18:04:00,
2013-08-12 14:09:00,74.3,70.2,30.08,NW,309,0.0,0.0,87,0.00,CLR,,0.57,WeatherDisplay:10.37,2013-08-12 18:09:00,
2013-08-12 14:19:00,76.1,72.3,30.08,ESE,123,3.0,8.0,88,0.00,CLR,,0.57,WeatherDisplay:10.37,2013-08-12 18:19:00,
2013-08-12 14:29:00,78.3,73.8,30.08,SSE,158,3.0,12.0,86,0.00,CLR,,0.57,WeatherDisplay:10.37,2013-08-12 18:29:00,
2013-08-12 14:34:00,79.3,73.7,30.08,SE,142,0.0,5.0,83,0.00,CLR,,0.57,WeatherDisplay:10.37,2013-08-12 18:34:00,
2013-08-12 14:39:00,80.3,74.3,30.09,ESE,103,0.0,3.0,82,0.00,CLR,,0.57,WeatherDisplay:10.37,2013-08-12 18:39:00,
2013-08-12 14:44:00,80.5,74.1,30.09,North,7,0.0,3.0,81,0.00,CLR,,0.57,WeatherDisplay:10.37,2013-08-12 18:44:00,
2013-08-12 14:49:00,80.2,73.5,30.09,North,354,0.0,2.0,80,0.00,CLR,,0.57,WeatherDisplay:10.37,2013-08-12 18:49:00,
2013-08-12 14:59:00,79.3,72.2,30.08,NNE,24,0.0,1.0,79,0.00,CLR,,0.57,WeatherDisplay:10.37,2013-08-12 18:59:00,
2013-08-12 15:04:00,78.8,72.1,30.07,North,6,0.0,5.0,80,0.00,CLR,,0.57,WeatherDisplay:10.37,2013-08-12 19:04:00,
2013-08-12 15:09:00,78.4,72.5,30.07,North,353,0.0,3.0,82,0.00,CLR,,0.57,WeatherDisplay:10.37,2013-08-12 19:09:00,
2013-08-12 15:14:00,78.1,72.5,30.06,NNE,12,0.0,0.0,83,0.00,CLR,,0.57,WeatherDisplay:10.37,2013-08-12 19:14:00,
2013-08-12 15:19:00,77.9,72.3,30.06,North,8,0.0,0.0,83,0.00,CLR,,0.57,WeatherDisplay:10.37,2013-08-12 19:19:00,
2013-08-12 15:24:00,77.5,72.0,30.06,NE,35,0.0,0.0,83,0.00,CLR,,0.57,WeatherDisplay:10.37,2013-08-12 19:24:00,
2013-08-12 15:29:00,77.3,71.7,30.06,SSW,199,0.0,7.0,83,0.00,CLR,,0.57,WeatherDisplay:10.37,2013-08-12 19:29:00,
2013-08-12 15:34:00,77.1,71.6,30.07,WSW,248,0.0,0.0,83,0.00,CLR,,0.57,WeatherDisplay:10.37,2013-08-12 19:34:00,
2013-08-12 15:39:00,77.0,71.4,30.07,West,265,0.0,0.0,83,0.00,CLR,,0.57,WeatherDisplay:10.37,2013-08-12 19:39:00,
2013-08-12 15:44:00,76.8,71.9,30.07,WNW,284,0.0,0.0,85,0.00,CLR,,0.57,WeatherDisplay:10.37,2013-08-12 19:44:00,
2013-08-12 15:49:00,76.6,71.8,30.08,West,277,0.0,0.0,85,0.00,CLR,,0.57,WeatherDisplay:10.37,2013-08-12 19:49:00,
2013-08-12 15:59:00,76.1,71.6,30.08,SW,229,6.0,8.0,86,0.00,CLR,,0.57,WeatherDisplay:10.37,2013-08-12 19:59:00,
2013-08-12 16:04:00,75.7,70.9,30.07,SW,217,6.0,12.0,85,0.00,CLR,,0.57,WeatherDisplay:10.37,2013-08-12 20:04:00,
2013-08-12 16:09:00,75.3,70.1,30.07,SSW,201,5.0,8.0,84,0.00,CLR,,0.57,WeatherDisplay:10.37,2013-08-12 20:09:00,
2013-08-12 16:15:00,75.0,70.2,30.07,SW,219,0.0,10.0,85,0.00,RA,,0.59,WeatherDisplay:10.37,2013-08-12 20:15:00,